[[{"header":{"parameterUnit":"m.s-1","parameterCategory":1,"la1":30.2991,"la2":30.254,"lo1":-89.0895,"lo2":-89.0444,"dy":0.0017,"dx":0.0017,"nx":28,"ny":28,"refTime":"2024-06-08T09:00:00:Z","depth":0,"parameterNumber":2,"parameterNumberName":"U-component_of_WINDS"},"data":[0,0,0,0,0,0,0,0,0,0,0,0,0,0,0,0,0,0,0,0,0,0,0,0,0,0,0,0,0,0,0,0,0,0,0,0,0,0,0,0,0,0,0,0,0,0,0,0,0,0,0,0,0,0,0,0,0,0,-0.0169,-0.0168,0,-0.0091,-0.009,-0.0089,-0.0033,-0.0032,-0.0032,-0.0031,0.0048,0.005,0.0051,0,0,0,0,0,0,0,0,0,0,0,0,0,-0.0271,-0.0269,-0.0169,-0.0168,-0.0167,-0.0091,-0.009,-0.0089,-0.0033,-0.0032,-0.0032,-0.0031,0.0047,0.0049,0.0051,0,0,0,0,0,0,0,0,0,0,0,0,0,-0.0213,-0.0269,-0.0169,-0.013,-0.0125,-0.0091,-0.009,-0.0088,-0.0033,-0.0032,-0.0031,-0.0031,0.0047,0.0049,0.0052,0.0053,0,0,0.0059,0.0061,0,0,0,0,0,0,0,0,-0.0216,-0.0209,-0.0136,-0.0132,-0.0127,-0.0071,-0.0096,-0.0041,-0.0033,-0.0068,-0.0031,-0.003,0.0008,0.0014,0.0027,0.0057,0.006,0.006,0.0061,0.0062,0.0063,0,0,0,0,0,0,0,-0.022,-0.0212,-0.0138,-0.0135,-0.013,-0.0116,-0.0107,-0.0086,-0.0035,-0.0065,-0.0061,-0.0052,0.0011,0.0024,0.0029,0.0062,0.006,0.0062,0.0063,0.0064,0.0096,0.0096,0,0,0,0,0,0,-0.023,-0.0216,-0.014,-0.0135,-0.0171,-0.0115,-0.0105,-0.009,-0.0035,-0.0026,-0.0053,-0.005,0.002,0.0026,0.0032,0.0037,0.0062,0.0065,0.0066,0.0097,0.0096,0.0095,0,0,0,0,0,0,-0.0233,-0.0224,-0.0143,-0.0175,-0.0163,-0.0114,-0.0097,-0.0088,-0.0075,-0.0026,-0.0017,-0.0048,0.002,0.0029,0.0048,0.004,0.0066,0.0068,0.0098,0.0097,0.0096,0.0047,0,0,0,0,0,0,-0.0236,-0.0225,-0.0224,-0.0175,-0.0162,-0.0129,-0.0098,-0.0087,-0.007,-0.0066,-0.0019,-0.0011,0.0022,0.0043,0.005,0.0044,0.007,0.0099,0.0097,0.0096,0.0049,0.0044,0.004,0,0,0,0,0,-0.024,-0.0241,-0.0224,-0.0215,-0.0159,-0.013,-0.0122,-0.0085,-0.0071,-0.007,-0.0038,-0.0012,0.004,0.0045,0.0053,0.0048,0.0099,0.0098,0.0096,0.0051,0.0045,0.004,0,0,0,0,0,0,-0.0292,-0.0234,-0.0215,-0.02,-0.017,-0.012,-0.0117,-0.0093,-0.0066,-0.0063,-0.0018,-0.0008,0.0006,0.0029,0.0033,0.0052,0.0073,0.0073,0.0036,0.0031,0.0026,0.002,0.0072,0,0,0,0,0,-0.0302,-0.0283,-0.0233,-0.0225,-0.0211,-0.0167,-0.0153,-0.0127,-0.0094,-0.0081,-0.0049,-0.0018,0.0005,0.0019,0.0043,0.0053,0.0063,0.0053,0.0049,0.0045,0.0044,0.005,0.0045,0.0091,0.0091,0.0091,0,0,-0.0322,-0.0288,-0.0279,-0.0234,-0.0208,-0.019,-0.0157,-0.0138,-0.0125,-0.0079,-0.0059,-0.0034,0.0003,0.0017,0.0025,0.0036,0.0034,0.0043,0.0039,0.0041,0.0048,0.0043,0.0039,0.009,0.009,0.009,0,0,-0.035,-0.0322,-0.0312,-0.0287,-0.0248,-0.0219,-0.0216,-0.017,-0.0152,-0.0131,-0.0097,-0.008,-0.004,-0.0016,0.0002,-0.0017,0.0008,-0.0011,-0.0035,-0.003,-0.0034,-0.0037,-0.0044,-0.0048,-0.0011,-0.0011,-0.0012,0,-0.038,-0.0351,-0.0311,-0.0295,-0.0277,-0.0234,-0.0224,-0.0202,-0.0157,-0.0146,-0.0133,-0.0083,-0.0055,-0.0036,-0.004,-0.0027,-0.0024,-0.0016,-0.0036,-0.0039,-0.0041,-0.0048,-0.0051,-0.0014,-0.0014,-0.0013,-0.0013,0,-0.0391,-0.0371,-0.0368,-0.0326,-0.0307,-0.0295,-0.0253,-0.0239,-0.0215,-0.0187,-0.0167,-0.0132,-0.0101,-0.0094,-0.007,-0.0071,-0.0065,-0.0045,-0.0023,-0.0049,-0.0054,-0.0057,-0.0018,-0.0017,-0.0016,-0.0015,0,0,-0.045,-0.0385,-0.0385,-0.0366,-0.032,-0.0304,-0.029,-0.0259,-0.0248,-0.0219,-0.0206,-0.0174,-0.0155,-0.0136,-0.0108,-0.0104,-0.0122,-0.0084,-0.0082,-0.0093,-0.0122,-0.0138,-0.0142,-0.0105,-0.0105,-0.0105,-0.0126,0,-0.0471,-0.0443,-0.0406,-0.0391,-0.0372,-0.0332,-0.0319,-0.029,-0.0264,-0.0245,-0.0216,-0.0194,-0.0171,-0.0158,-0.0152,-0.0121,-0.0127,-0.0119,-0.0093,-0.0093,-0.0105,-0.0145,-0.0161,-0.0182,-0.0127,-0.0128,-0.0128,0,-0.0492,-0.0465,-0.0448,-0.0404,-0.0395,-0.0384,-0.0353,-0.0335,-0.0302,-0.0283,-0.0261,-0.0232,-0.0215,-0.0195,-0.0172,-0.0167,-0.0154,-0.0137,-0.0137,-0.0134,-0.0113,-0.0144,-0.0188,-0.0191,-0.0131,-0.0131,-0.013,0,-0.0538,-0.0497,-0.0482,-0.0467,-0.0415,-0.0408,-0.0386,-0.0352,-0.0336,-0.0309,-0.0298,-0.0269,-0.0254,-0.0233,-0.0197,-0.0185,-0.0178,-0.0154,-0.0163,-0.0164,-0.0164,-0.0164,-0.0207,-0.0154,-0.0154,-0.0154,-0.0154,0,-0.0567,-0.0558,-0.0502,-0.0493,-0.0482,-0.044,-0.0431,-0.0405,-0.0375,-0.036,-0.0323,-0.031,-0.0263,-0.0244,-0.0216,-0.0202,-0.0195,-0.018,-0.0172,-0.0183,-0.0186,-0.0175,-0.0173,-0.0155,-0.0154,-0.0154,-0.0154,0,-0.0617,-0.0579,-0.056,-0.0512,-0.05,-0.0494,-0.0454,-0.0443,-0.0415,-0.0397,-0.039,-0.0346,-0.0322,-0.0284,-0.0249,-0.023,-0.0221,-0.0208,-0.0233,-0.0229,-0.0239,-0.0239,-0.0278,-0.0282,-0.0225,-0.0226,-0.0227,0,-0.0638,-0.063,-0.0582,-0.057,-0.0549,-0.0529,-0.0513,-0.0471,-0.0456,-0.0417,-0.0411,-0.0385,-0.0362,-0.0326,-0.0291,-0.0264,-0.0251,-0.0266,-0.0247,-0.0259,-0.0253,-0.0254,-0.0253,-0.0271,-0.0272,-0.0273,-0.0273,0,-0.068,-0.0662,-0.0639,-0.061,-0.0592,-0.0567,-0.054,-0.0532,-0.0485,-0.0469,-0.0445,-0.0427,-0.0392,-0.0366,-0.0335,-0.0312,-0.0286,-0.028,-0.028,-0.0292,-0.0307,-0.03,-0.0246,-0.0279,-0.0279,-0.0278,-0.0278,-0.0278,-0.0717,-0.0708,-0.0673,-0.065,-0.0625,-0.0601,-0.059,-0.056,-0.0539,-0.0507,-0.0483,-0.0461,-0.0427,-0.0382,-0.0362,-0.0344,-0.0331,-0.0332,-0.0333,-0.0334,-0.0338,-0.0309,-0.0337,-0.0337,-0.0337,-0.0337,-0.0337,0,-0.0758,-0.0733,-0.0712,-0.0676,-0.0658,-0.0633,-0.0603,-0.0589,-0.057,-0.0541,-0.0519,-0.0491,-0.0466,-0.0429,-0.0402,-0.0394,-0.0381,-0.0389,-0.0389,-0.0385,-0.035,-0.0353,-0.04,-0.04,-0.04,-0.04,-0.04,-0.04,-0.0777,-0.0762,-0.074,-0.0712,-0.0687,-0.0665,-0.065,-0.0628,-0.0605,-0.0576,-0.0555,-0.0531,-0.0498,-0.0468,-0.0445,-0.0434,-0.0427,-0.0438,-0.0424,-0.0393,-0.0387,-0.0382,-0.0384,-0.0436,-0.0436,-0.046,-0.046,-0.0461]},{"header":{"parameterUnit":"m.s-1","parameterCategory":1,"la1":30.2991,"la2":30.254,"lo1":-89.0895,"lo2":-89.0444,"dy":0.0017,"dx":0.0017,"nx":28,"ny":28,"refTime":"2024-06-08T09:00:00:Z","depth":0,"parameterNumber":3,"parameterNumberName":"V-component_of_WINDS"},"data":[0,0,0,0,0,0,0,0,0,0,0,0,0,0,0,0,0,0,0,0,0,0,0,0,0,0,0,0,0,0,0,0,0,0,0,0,0,0,0,0,0,0,0,0,0,0,0,0,0,0,0,0,0,0,0,0,0,0,3.2584,3.2584,0,3.2578,3.2578,3.2578,3.2518,3.2517,3.2515,3.2514,3.2508,3.2509,3.2511,0,0,0,0,0,0,0,0,0,0,0,0,0,3.2543,3.2544,3.2584,3.2584,3.2583,3.2578,3.2578,3.2577,3.2519,3.2517,3.2515,3.2513,3.2508,3.2509,3.2511,0,0,0,0,0,0,0,0,0,0,0,0,0,3.2551,3.2544,3.2584,3.2553,3.2551,3.2578,3.2578,3.2577,3.2519,3.2517,3.2515,3.2513,3.2507,3.2509,3.2511,3.2566,0,0,3.2516,3.2517,0,0,0,0,0,0,0,0,3.2551,3.2553,3.2558,3.2556,3.2552,3.2546,3.2561,3.2574,3.252,3.2531,3.2514,3.2511,3.2523,3.2523,3.2527,3.2566,3.2566,3.2517,3.2518,3.2518,3.2519,0,0,0,0,0,0,0,3.255,3.2553,3.2581,3.2558,3.2555,3.254,3.2539,3.2563,3.2539,3.253,3.2526,3.2526,3.2521,3.2525,3.2526,3.2566,3.2517,3.2518,3.2519,3.252,3.2648,3.265,0,0,0,0,0,0,3.2554,3.2553,3.2581,3.2581,3.2546,3.2542,3.2541,3.2551,3.2539,3.2535,3.2528,3.2523,3.2523,3.2524,3.2526,3.2588,3.2518,3.252,3.2521,3.2646,3.2648,3.2651,0,0,0,0,0,0,3.2553,3.2557,3.2582,3.2566,3.2568,3.2545,3.2557,3.2552,3.2556,3.2537,3.2533,3.2537,3.2522,3.2523,3.2556,3.2587,3.2521,3.2523,3.2643,3.2647,3.265,3.2715,0,0,0,0,0,0,3.2552,3.2557,3.2579,3.2567,3.2569,3.2613,3.2559,3.2553,3.2559,3.2553,3.2544,3.2541,3.252,3.2554,3.2558,3.2588,3.2524,3.264,3.2645,3.2649,3.271,3.272,3.2729,0,0,0,0,0,3.2551,3.2598,3.258,3.2584,3.2595,3.2615,3.2616,3.2591,3.2562,3.2583,3.257,3.2541,3.2584,3.2558,3.2562,3.2593,3.2638,3.2643,3.2648,3.2705,3.2718,3.2729,0,0,0,0,0,0,3.2614,3.2595,3.2576,3.262,3.2619,3.2605,3.263,3.2605,3.2613,3.2607,3.2575,3.2574,3.2611,3.2606,3.2577,3.2646,3.2606,3.2612,3.2647,3.2659,3.2669,3.2668,3.2526,0,0,0,0,0,3.2633,3.2651,3.2634,3.2674,3.2675,3.2653,3.266,3.2641,3.2639,3.2639,3.2629,3.2628,3.2641,3.265,3.2661,3.2709,3.2705,3.2733,3.2742,3.275,3.2756,3.2778,3.279,3.2668,3.2668,3.2668,0,0,3.2673,3.2665,3.2678,3.2686,3.2684,3.2702,3.2653,3.2675,3.2688,3.2642,3.2672,3.2665,3.2662,3.2702,3.2719,3.2698,3.2789,3.2757,3.2763,3.2764,3.2785,3.2797,3.2807,3.2672,3.2671,3.267,0,0,3.2753,3.275,3.2782,3.278,3.2776,3.2761,3.2769,3.2758,3.2751,3.278,3.2746,3.2761,3.2785,3.2783,3.2785,3.2865,3.2837,3.2869,3.2918,3.2941,3.2951,3.2959,3.2985,3.2995,3.2875,3.2875,3.2875,0,3.2802,3.2829,3.2802,3.2825,3.2829,3.2788,3.282,3.282,3.282,3.2823,3.2801,3.2828,3.2823,3.2861,3.288,3.2885,3.2891,3.2869,3.2952,3.296,3.2967,3.2992,3.3002,3.2879,3.2878,3.2878,3.2878,0,3.2888,3.2907,3.2934,3.2934,3.2941,3.2969,3.2945,3.2956,3.2936,3.2923,3.2953,3.2946,3.2954,3.2962,3.2943,3.2997,3.2984,3.2957,3.2916,3.2983,3.3005,3.3015,3.2884,3.2883,3.2882,3.2881,0,0,3.3008,3.2992,3.3002,3.3001,3.2993,3.3007,3.3033,3.304,3.3049,3.3051,3.307,3.309,3.3065,3.3068,3.3048,3.3069,3.3129,3.3039,3.3038,3.3054,3.3186,3.3205,3.3216,3.3111,3.3113,3.3115,3.3185,0,3.3084,3.3126,3.3102,3.3147,3.3163,3.3124,3.3146,3.3143,3.3132,3.3143,3.3131,3.3145,3.3111,3.3112,3.3131,3.3118,3.3155,3.3113,3.3128,3.3129,3.3128,3.3228,3.3249,3.3316,3.3194,3.3196,3.3197,0,3.3178,3.3182,3.3229,3.3217,3.3222,3.3242,3.3246,3.3258,3.3254,3.3244,3.3247,3.3222,3.3245,3.3206,3.3237,3.3209,3.3214,3.3209,3.321,3.3209,3.3166,3.3228,3.3337,3.3346,3.3211,3.321,3.3209,0,3.3258,3.3276,3.3305,3.3306,3.3293,3.3307,3.3303,3.3296,3.3302,3.3305,3.3308,3.3315,3.3318,3.3324,3.3301,3.3275,3.3334,3.3294,3.3326,3.3326,3.3338,3.3338,3.3448,3.3345,3.3345,3.3345,3.3345,0,3.3344,3.3374,3.3341,3.3359,3.339,3.3362,3.3394,3.3385,3.338,3.3395,3.3362,3.3377,3.3347,3.3359,3.3342,3.3369,3.3371,3.3363,3.3358,3.3365,3.3366,3.3366,3.336,3.3348,3.3347,3.3347,3.3346,0,3.3438,3.3418,3.3447,3.3431,3.3428,3.3452,3.3439,3.3454,3.3441,3.346,3.3463,3.3441,3.3453,3.3432,3.3441,3.343,3.3467,3.3455,3.3468,3.3464,3.3496,3.3493,3.3609,3.3622,3.3513,3.3514,3.3515,0,3.3493,3.3515,3.3502,3.3509,3.3506,3.3519,3.3523,3.3497,3.3503,3.3499,3.3515,3.3524,3.353,3.3551,3.3536,3.3543,3.353,3.357,3.3531,3.3536,3.3528,3.3526,3.3527,3.3578,3.3579,3.358,3.3581,0,3.3593,3.3581,3.359,3.3594,3.36,3.3603,3.3603,3.3611,3.3582,3.3591,3.3602,3.3607,3.3616,3.3625,3.3628,3.3623,3.3597,3.3594,3.3601,3.3608,3.3613,3.3608,3.3488,3.3591,3.359,3.3589,3.3589,3.3588,3.3668,3.3684,3.3677,3.3687,3.3684,3.3684,3.3697,3.3685,3.3694,3.3698,3.3682,3.3697,3.3691,3.3692,3.369,3.3701,3.3683,3.3694,3.3696,3.3699,3.3703,3.3613,3.3702,3.3701,3.3701,3.3701,3.37,0,3.3764,3.3757,3.3766,3.3766,3.3774,3.3749,3.3747,3.3755,3.3768,3.3765,3.3771,3.3783,3.3792,3.3777,3.3783,3.3794,3.3782,3.3797,3.3794,3.3793,3.372,3.3712,3.3806,3.3806,3.3806,3.3806,3.3806,3.3806,3.3815,3.384,3.3828,3.3851,3.3844,3.3858,3.3859,3.3858,3.3855,3.387,3.3877,3.3867,3.3859,3.3864,3.387,3.3866,3.3868,3.3886,3.3878,3.3809,3.3799,3.3789,3.3781,3.3888,3.3888,3.3949,3.395,3.395]}]]